Location: Ernsee
(50.8780°N, 12.0389°E)
Time: 19:42:27
(UTC+00:00)

Cosmos 1812 Rocket - Pass Details

Date: 20 January 2020
Orbit: 606 x 631 km, 82.5° (Epoch: 21 February)

Event Time Altitude Azimuth Distance (km) Brightness Sun altitude
Rises 06:14:05 0° 184° (S) 2,864 7.2 -7.8°
Reaches altitude 10° 06:16:17 10° 183° (S) 1,967 6.4 -7.5°
Maximum altitude 06:20:38 76° 99° (E) 641 3.8 -6.9°
Drops below altitude 10° 06:25:03 10° 13° (NNE) 1,999 6.1 -6.3°
Sets 06:27:18 0° 12° (NNE) 2,915 6.9 -5.9°
